Location: Oberkirch
(48.5323°N, 8.0787°E)
Time: 17:07:36
(UTC+00:00)

Cosmos 2369 Rocket - Pass Details

Date: 08 November 2025
Orbit: 826 x 853 km, 71.0° (Epoch: 10 December)

Event Time Altitude Azimuth Distance (km) Brightness Sun altitude
Rises 05:27:29 0° 334° (NNW) 3,407 5.0 -9.8°
Reaches altitude 10° 05:30:02 10° 340° (NNW) 2,473 4.3 -9.4°
Maximum altitude 05:35:31 47° 55° (NE) 1,108 3.2 -8.5°
Drops below altitude 10° 05:40:59 10° 129° (SE) 2,473 5.9 -7.6°
Sets 05:43:32 0° 135° (SE) 3,408 6.6 -7.2°
